Regional Weather Roundup
Issued by NWS Memphis, TN

Home | Current Version | Previous Version | Text Only | Print | Product List | Glossary On
Versions: 1 2 3 4 5 6 7 8 9 10 11 12 13 14 15 16 17 18 19 20 21 22 23 24 25 26 27 28 29 30 31 32 33 34 35 36 37 38 39 40 41 42 43 44 45 46 47 48 49 50
000
ASUS44 KMEG 260810
RWRMEG
MEMPHIS CWA HOURLY WEATHER ROUNDUP
NATIONAL WEATHER SERVICE MEMPHIS TN
300 AM CDT TUE MAY 26 2015

...WEST TENNESSEE...

CITY           SKY/WX    TMP DP  RH WIND       PRES   REMARKS
MEMPHIS INTL   LGT RAIN  74  68  81 S14G21    29.95S
NWS MEMPHIS      N/A     73 N/A N/A MISG        N/A
JACKSON        CLOUDY    70  64  81 VRB7G17   30.00S
LEXINGTON      CLEAR     68  64  88 SE5       30.03S
DYERSBURG      CLOUDY    72  55  56 S8        29.97F
PARIS          PTCLDY    66  66 100 S9        30.02F


...EASTERN ARKANSAS...

CITY           SKY/WX    TMP DP  RH WIND       PRES   REMARKS
JONESBORO      LGT RAIN  65  65 100 W5        29.92F
WEST MEMPHIS   LGT RAIN  67  67 100 CALM      29.94S FOG
BATESVILLE     CLOUDY    64  63  94 E9        29.84F
NEWPORT        CLOUDY    65  65 100 SE8       29.89F
WALNUT RIDGE   CLOUDY    66  63  88 SE7       29.91F
BLYTHEVILLE    CLOUDY    73  70  90 S12       29.95F
SEARCY         CLOUDY    64  63  96 E9        29.86F
STUTTGART      CLOUDY    64  61  88 MISG      29.91F
PINE BLUFF     LGT RAIN  63  61  93 SE17      29.93F
MONTICELLO     LGT RAIN  63  62  97 SE8       29.99R


...NORTH MISSISSIPPI...

CITY           SKY/WX    TMP DP  RH WIND       PRES   REMARKS
TUPELO         MOCLDY    70  65  84 S10       30.02F
OXFORD         CLOUDY    68  66  94 S18G25    30.02R
OLIVE BRANCH   CLOUDY    72  72 100 S10       29.97R
TUNICA         LGT RAIN  64  63  94 CALM      29.96F
CLARKSDALE       N/A     64  64 100 CALM      29.97F
CORINTH        CLOUDY    70  64  83 S8G14     30.03R
GREENWOOD      LGT RAIN  64  61  90 S3        30.03F
COLUMBUS       CLOUDY    70  70 100 SE9       30.04
STARKVILLE     FAIR      68  66  94 S8        30.04S
GOLDEN TRIANGL MOCLDY    70  64  83 S13       30.04S


...SOUTHEAST MISSOURI...

CITY           SKY/WX    TMP DP  RH WIND       PRES   REMARKS
WEST PLAINS    CLOUDY    63  61  93 SE9       29.85F
POPLAR BLUFF   LGT RAIN  72  69  90 S7        29.91F
CAPE GIRARDEAU CLOUDY    71  69  93 SE12G20   29.94F


...NORTHWEST ALABAMA...

CITY           SKY/WX    TMP DP  RH WIND       PRES   REMARKS
MUSCLE SHOALS  PTCLDY    66  63  90 SE6       30.08F


...MIDDLE TENNESSEE...

CITY           SKY/WX    TMP DP  RH WIND       PRES   REMARKS
NASHVILLE      MOCLDY    67  64  90 S7        30.09F
CLARKSVILLE    MOCLDY    67  65  93 S6        30.06S
COLUMBIA       CLEAR     66  64  94 S5        30.08S


...WESTERN KENTUCKY...

CITY           SKY/WX    TMP DP  RH WIND       PRES   REMARKS
PADUCAH        CLOUDY    71  67  87 S12G20    29.98F
FORT CAMPBELL  MOCLDY    68  65  92 SE9       30.05S


...CENTRAL ARKANSAS...

CITY           SKY/WX    TMP DP  RH WIND       PRES   REMARKS
LITTLE ROCK    CLOUDY    64  60  87 SE12G22   29.85F


SKY/WX REPORTED AS FAIR MEANS FEW OR NO CLOUDS BELOW
12 THOUSAND FEET.



USA.gov is the U.S. government's official web portal to all federal, state and local government web resources and services.